[[{"header":{"parameterUnit":"m.s-1","parameterCategory":1,"la1":30.2991,"la2":30.254,"lo1":-89.0895,"lo2":-89.0444,"dx":0.0017,"dy":0.0017,"nx":28,"ny":28,"refTime":"2022-11-08T09:00:00:Z","depth":0,"parameterNumber":2,"parameterNumberName":"U-component_of_WINDS"},"data":[0,0,0,0,0,0,0,0,0,0,0,0,0,0,0,0,0,0,0,0,0,0,0,0,0,0,0,0,0,0,0,0,0,0,0,0,0,0,0,0,0,0,0,0,0,0,0,0,0,0,0,0,0,0,0,0,0,0,-5.1106,-5.1106,0,-5.1165,-5.1166,-5.1167,-5.1014,-5.1009,-5.1005,-5.1,-5.1062,-5.1068,-5.1074,0,0,0,0,0,0,0,0,0,0,0,0,0,-5.086,-5.0865,-5.1106,-5.1106,-5.1107,-5.1165,-5.1166,-5.1167,-5.1015,-5.1009,-5.1003,-5.0998,-5.106,-5.1068,-5.1075,0,0,0,0,0,0,0,0,0,0,0,0,0,-5.0948,-5.0867,-5.1106,-5.1038,-5.1033,-5.1165,-5.1166,-5.1167,-5.1016,-5.1009,-5.1002,-5.0995,-5.1058,-5.1067,-5.1076,-5.1276,0,0,-5.1104,-5.1108,0,0,0,0,0,0,0,0,-5.0943,-5.0957,-5.1048,-5.1043,-5.1037,-5.1075,-5.1102,-5.1204,-5.1018,-5.1023,-5.1,-5.0992,-5.1072,-5.108,-5.1107,-5.1279,-5.1282,-5.1105,-5.111,-5.1114,-5.1117,0,0,0,0,0,0,0,-5.0937,-5.0954,-5.1129,-5.1049,-5.1043,-5.1005,-5.101,-5.1121,-5.1087,-5.1022,-5.1011,-5.102,-5.1068,-5.1099,-5.1107,-5.1283,-5.1105,-5.1113,-5.1118,-5.1122,-5.1621,-5.1628,0,0,0,0,0,0,-5.094,-5.095,-5.1127,-5.1131,-5.0972,-5.1015,-5.102,-5.107,-5.1085,-5.1081,-5.1026,-5.1013,-5.1086,-5.1097,-5.1109,-5.1344,-5.1114,-5.1123,-5.1128,-5.1613,-5.1623,-5.1631,0,0,0,0,0,0,-5.0935,-5.0957,-5.1125,-5.1037,-5.1056,-5.1027,-5.1084,-5.1075,-5.1105,-5.1089,-5.1082,-5.1063,-5.1081,-5.1096,-5.1235,-5.1344,-5.1127,-5.1135,-5.1604,-5.1616,-5.1627,-5.1817,0,0,0,0,0,0,-5.0929,-5.0956,-5.1032,-5.104,-5.1061,-5.1252,-5.1091,-5.1082,-5.1121,-5.1104,-5.1122,-5.1118,-5.1077,-5.1223,-5.1245,-5.1353,-5.1142,-5.1594,-5.161,-5.1623,-5.1801,-5.1834,-5.1862,0,0,0,0,0,-5.092,-5.1084,-5.1037,-5.1059,-5.1156,-5.1258,-5.127,-5.1219,-5.1131,-5.1207,-5.1196,-5.1117,-5.1328,-5.1238,-5.1262,-5.1374,-5.1587,-5.1605,-5.1622,-5.1787,-5.1827,-5.1861,0,0,0,0,0,0,-5.1091,-5.1084,-5.1032,-5.1203,-5.1232,-5.1232,-5.1327,-5.1263,-5.1318,-5.13,-5.1235,-5.124,-5.1392,-5.1396,-5.1296,-5.1568,-5.1443,-5.1466,-5.156,-5.1598,-5.1628,-5.1624,-5.115,0,0,0,0,0,-5.1148,-5.1231,-5.1221,-5.1373,-5.139,-5.1356,-5.1399,-5.1357,-5.1385,-5.1396,-5.1396,-5.1426,-5.1498,-5.1548,-5.1614,-5.18,-5.1802,-5.1889,-5.1919,-5.1944,-5.1966,-5.2064,-5.2102,-5.1688,-5.1688,-5.1688,0,0,-5.1267,-5.1274,-5.1331,-5.1407,-5.1425,-5.1513,-5.1368,-5.1467,-5.1532,-5.1411,-5.1543,-5.1544,-5.1573,-5.1736,-5.1808,-5.1745,-5.208,-5.1967,-5.1987,-5.1994,-5.2086,-5.2125,-5.216,-5.17,-5.1698,-5.1696,0,0,-5.153,-5.1544,-5.1671,-5.1692,-5.172,-5.1696,-5.1727,-5.1736,-5.1732,-5.1863,-5.1774,-5.185,-5.1977,-5.2001,-5.203,-5.2301,-5.223,-5.2324,-5.2483,-5.258,-5.2612,-5.2641,-5.2738,-5.2773,-5.2345,-5.2345,-5.2345,0,-5.1676,-5.1804,-5.1745,-5.1851,-5.1887,-5.1781,-5.1909,-5.1932,-5.1981,-5.2008,-5.1936,-5.2093,-5.2105,-5.2273,-5.2338,-5.2365,-5.2398,-5.2323,-5.2612,-5.2641,-5.2666,-5.2758,-5.2795,-5.2356,-5.2355,-5.2354,-5.2353,0,-5.1982,-5.2072,-5.2172,-5.2221,-5.2268,-5.2385,-5.2343,-5.2398,-5.2351,-5.2335,-5.2469,-5.248,-5.2546,-5.2582,-5.2538,-5.2744,-5.2703,-5.2623,-5.2496,-5.2718,-5.2803,-5.2838,-5.2373,-5.2368,-5.2365,-5.2362,0,0,-5.2355,-5.2369,-5.2407,-5.2427,-5.245,-5.2519,-5.263,-5.2694,-5.2743,-5.2779,-5.2871,-5.298,-5.2906,-5.2939,-5.2896,-5.2981,-5.3194,-5.289,-5.2889,-5.2947,-5.3421,-5.3483,-5.3524,-5.3147,-5.3153,-5.3159,-5.3419,0,-5.2615,-5.2806,-5.2756,-5.2946,-5.3029,-5.2929,-5.3025,-5.305,-5.3037,-5.3105,-5.309,-5.3169,-5.3065,-5.3084,-5.3163,-5.3152,-5.3289,-5.3132,-5.3232,-5.3237,-5.323,-5.3568,-5.3633,-5.3879,-5.3452,-5.3457,-5.3461,0,-5.2945,-5.2993,-5.3192,-5.32,-5.3233,-5.3321,-5.3375,-5.3442,-5.3467,-5.3451,-5.3488,-5.3428,-5.3537,-5.3408,-5.3558,-5.3452,-5.349,-5.349,-5.3498,-5.3507,-5.3364,-5.3587,-5.3956,-5.3994,-5.3513,-5.3509,-5.3505,0,-5.3198,-5.3313,-5.3447,-5.3468,-5.348,-5.3544,-5.3553,-5.357,-5.3612,-5.3659,-5.3685,-5.3745,-5.3778,-5.3825,-5.3783,-5.3693,-5.394,-5.3807,-5.393,-5.3932,-5.3988,-5.3985,-5.437,-5.4011,-5.4011,-5.401,-5.4009,0,-5.3494,-5.362,-5.3561,-5.3644,-5.3781,-5.3721,-5.3859,-5.3855,-5.3872,-5.3951,-5.3868,-5.3945,-5.3883,-5.3954,-5.3922,-5.4051,-5.4066,-5.4057,-5.4047,-5.4065,-5.4067,-5.409,-5.4072,-5.4019,-5.4017,-5.4015,-5.4014,0,-5.3802,-5.3767,-5.3906,-5.3906,-5.3909,-5.401,-5.401,-5.4086,-5.4066,-5.4168,-5.4189,-5.4158,-5.4238,-5.4199,-5.4282,-5.426,-5.4427,-5.4393,-5.4419,-5.441,-5.4536,-5.4525,-5.495,-5.5002,-5.461,-5.4614,-5.4617,0,-5.3993,-5.4088,-5.4097,-5.4144,-5.4158,-5.4236,-5.4277,-5.4221,-5.4268,-5.4302,-5.4375,-5.4446,-5.4501,-5.4633,-5.4618,-5.4681,-5.4649,-5.4793,-5.4658,-5.4673,-5.4652,-5.4647,-5.4656,-5.4821,-5.4826,-5.4829,-5.4832,0,-5.4338,-5.4316,-5.4379,-5.4436,-5.4488,-5.453,-5.4566,-5.4609,-5.4554,-5.461,-5.469,-5.4733,-5.4817,-5.4889,-5.4944,-5.4951,-5.4884,-5.4875,-5.4907,-5.4927,-5.4938,-5.4934,-5.4494,-5.4866,-5.4862,-5.486,-5.4858,-5.4857,-5.4594,-5.4672,-5.4691,-5.4764,-5.4784,-5.4819,-5.489,-5.4879,-5.4945,-5.5008,-5.4971,-5.5065,-5.5086,-5.5152,-5.5169,-5.5241,-5.5184,-5.523,-5.5242,-5.5255,-5.5272,-5.4926,-5.5251,-5.5249,-5.5249,-5.5248,-5.5247,0,-5.4934,-5.4941,-5.5008,-5.506,-5.5117,-5.5047,-5.5082,-5.5134,-5.5218,-5.5243,-5.5298,-5.539,-5.5459,-5.545,-5.5513,-5.5573,-5.5543,-5.5591,-5.5587,-5.559,-5.5319,-5.5285,-5.5614,-5.5614,-5.5614,-5.5614,-5.5614,-5.5614,-5.5118,-5.5248,-5.5228,-5.5366,-5.5372,-5.5463,-5.5489,-5.552,-5.554,-5.5646,-5.5703,-5.5695,-5.5707,-5.577,-5.5831,-5.5826,-5.5853,-5.5914,-5.5898,-5.5645,-5.5609,-5.5574,-5.5542,-5.592,-5.5921,-5.6163,-5.6165,-5.6167]},{"header":{"parameterUnit":"m.s-1","parameterCategory":1,"la1":30.2991,"la2":30.254,"lo1":-89.0895,"lo2":-89.0444,"dx":0.0017,"dy":0.0017,"nx":28,"ny":28,"refTime":"2022-11-08T09:00:00:Z","depth":0,"parameterNumber":3,"parameterNumberName":"V-component_of_WINDS"},"data":[0,0,0,0,0,0,0,0,0,0,0,0,0,0,0,0,0,0,0,0,0,0,0,0,0,0,0,0,0,0,0,0,0,0,0,0,0,0,0,0,0,0,0,0,0,0,0,0,0,0,0,0,0,0,0,0,0,0,-3.9126,-3.9127,0,-3.9192,-3.9193,-3.9194,-3.9157,-3.9156,-3.9154,-3.9152,-3.9217,-3.9221,-3.9224,0,0,0,0,0,0,0,0,0,0,0,0,0,-3.8963,-3.8966,-3.9126,-3.9127,-3.9127,-3.9192,-3.9193,-3.9194,-3.9158,-3.9155,-3.9153,-3.9151,-3.9216,-3.922,-3.9225,0,0,0,0,0,0,0,0,0,0,0,0,0,-3.9032,-3.8967,-3.9126,-3.9117,-3.9117,-3.9192,-3.9193,-3.9194,-3.9158,-3.9155,-3.9153,-3.915,-3.9215,-3.922,-3.9225,-3.9311,0,0,-3.9241,-3.9243,0,0,0,0,0,0,0,0,-3.9028,-3.9038,-3.9118,-3.9118,-3.9118,-3.9164,-3.916,-3.9233,-3.9159,-3.9142,-3.9152,-3.9149,-3.9202,-3.9208,-3.9226,-3.9314,-3.9317,-3.9241,-3.9244,-3.9247,-3.9248,0,0,0,0,0,0,0,-3.9023,-3.9035,-3.9152,-3.9119,-3.9119,-3.9109,-3.9115,-3.9173,-3.9186,-3.9144,-3.9141,-3.915,-3.9201,-3.9221,-3.9227,-3.9318,-3.9241,-3.9246,-3.9249,-3.9251,-3.9478,-3.948,0,0,0,0,0,0,-3.902,-3.9031,-3.915,-3.9154,-3.9066,-3.9114,-3.9121,-3.9152,-3.9186,-3.9188,-3.9152,-3.9148,-3.9214,-3.9221,-3.9229,-3.9331,-3.9247,-3.9251,-3.9254,-3.9475,-3.9478,-3.9481,0,0,0,0,0,0,-3.9016,-3.9031,-3.9147,-3.9092,-3.9106,-3.912,-3.9154,-3.9155,-3.9174,-3.9192,-3.9194,-3.917,-3.9212,-3.9222,-3.9291,-3.9333,-3.9254,-3.9258,-3.9471,-3.9476,-3.948,-3.9536,0,0,0,0,0,0,-3.9012,-3.903,-3.9064,-3.9093,-3.9109,-3.9209,-3.9157,-3.9158,-3.9184,-3.9179,-3.921,-3.9212,-3.9211,-3.9283,-3.9296,-3.9338,-3.9262,-3.9467,-3.9473,-3.9478,-3.953,-3.9541,-3.9551,0,0,0,0,0,-3.9006,-3.9077,-3.9066,-3.908,-3.9152,-3.9211,-3.922,-3.9218,-3.9187,-3.9221,-3.9232,-3.9211,-3.9326,-3.9291,-3.9305,-3.9349,-3.9465,-3.9472,-3.9478,-3.9525,-3.9539,-3.9551,0,0,0,0,0,0,-3.9051,-3.908,-3.9068,-3.9151,-3.9179,-3.9205,-3.9247,-3.9233,-3.927,-3.9264,-3.9258,-3.9265,-3.9336,-3.935,-3.9309,-3.9433,-3.9391,-3.94,-3.9422,-3.9435,-3.9445,-3.944,-3.9267,0,0,0,0,0,-3.9071,-3.9118,-3.914,-3.9211,-3.9226,-3.9234,-3.926,-3.9255,-3.9284,-3.9295,-3.9311,-3.9339,-3.9381,-3.9409,-3.9449,-3.9532,-3.9537,-3.9569,-3.958,-3.9588,-3.9596,-3.9639,-3.9653,-3.9503,-3.9503,-3.9503,0,0,-3.9112,-3.9134,-3.9164,-3.922,-3.9242,-3.9289,-3.9244,-3.9297,-3.9331,-3.9303,-3.9368,-3.9381,-3.9411,-3.9487,-3.9521,-3.95,-3.9639,-3.9597,-3.9603,-3.9607,-3.9647,-3.9662,-3.9674,-3.9508,-3.9507,-3.9506,0,0,-3.9211,-3.9233,-3.9293,-3.9315,-3.9347,-3.9352,-3.9367,-3.9395,-3.9402,-3.9468,-3.9447,-3.9487,-3.9561,-3.9583,-3.9603,-3.9708,-3.969,-3.9721,-3.9775,-3.9817,-3.9829,-3.984,-3.9875,-3.9888,-3.9729,-3.9729,-3.9729,0,-3.9257,-3.9329,-3.9325,-3.9379,-3.9403,-3.938,-3.944,-3.9461,-3.9505,-3.9522,-3.9498,-3.9588,-3.9607,-3.9687,-3.9712,-3.973,-3.9745,-3.9717,-3.9828,-3.9838,-3.9848,-3.9882,-3.9896,-3.9733,-3.9732,-3.9732,-3.9732,0,-3.9383,-3.9433,-3.9477,-3.952,-3.955,-3.9606,-3.961,-3.964,-3.9632,-3.9639,-3.9705,-3.9727,-3.977,-3.9788,-3.9782,-3.9867,-3.9852,-3.9829,-3.9786,-3.9866,-3.9898,-3.9911,-3.9738,-3.9737,-3.9735,-3.9735,0,0,-3.9513,-3.9552,-3.9569,-3.9587,-3.9621,-3.9658,-3.9712,-3.9755,-3.978,-3.981,-3.9855,-3.9916,-3.9894,-3.9917,-3.9912,-3.9949,-4.0029,-3.9921,-3.9921,-3.9939,-4.0121,-4.0138,-4.0154,-4.0017,-4.0019,-4.0021,-4.0118,0,-3.9612,-3.9708,-3.9706,-3.9795,-3.9839,-3.9817,-3.9864,-3.9889,-3.9896,-3.9934,-3.9942,-3.9985,-3.9953,-3.9967,-4.0002,-4.0012,-4.0065,-4.0005,-4.0056,-4.0058,-4.0049,-4.017,-4.0189,-4.0279,-4.0131,-4.0133,-4.0134,0,-3.9742,-3.9776,-3.987,-3.9895,-3.9913,-3.9956,-3.9993,-4.003,-4.0057,-4.006,-4.0085,-4.0074,-4.0127,-4.0083,-4.0155,-4.0114,-4.0135,-4.0143,-4.0146,-4.015,-4.0101,-4.0177,-4.0308,-4.0322,-4.0154,-4.0153,-4.0151,0,-3.9825,-3.9895,-3.9959,-3.9976,-4.0008,-4.0037,-4.0052,-4.0076,-4.0101,-4.0133,-4.0149,-4.0187,-4.0208,-4.0237,-4.0236,-4.0204,-4.0308,-4.0264,-4.031,-4.0311,-4.0333,-4.0331,-4.0469,-4.0348,-4.0348,-4.0348,-4.0348,0,-3.9936,-3.9993,-3.9997,-4.0037,-4.0099,-4.0095,-4.0157,-4.0168,-4.019,-4.023,-4.0213,-4.025,-4.0247,-4.0285,-4.0284,-4.0342,-4.0352,-4.0355,-4.0354,-4.0356,-4.0355,-4.0369,-4.0362,-4.0351,-4.0351,-4.035,-4.0349,0,-4.004,-4.0045,-4.0113,-4.0137,-4.0144,-4.0189,-4.0209,-4.0245,-4.0251,-4.0301,-4.0313,-4.0321,-4.0364,-4.0366,-4.0416,-4.0415,-4.0486,-4.0479,-4.0477,-4.0476,-4.0521,-4.0516,-4.0671,-4.0691,-4.0558,-4.056,-4.0561,0,-4.011,-4.0153,-4.0182,-4.0207,-4.0223,-4.0266,-4.0291,-4.0288,-4.0314,-4.0347,-4.0379,-4.0421,-4.0454,-4.0523,-4.0533,-4.057,-4.0563,-4.0614,-4.0568,-4.0568,-4.0562,-4.0559,-4.0562,-4.0623,-4.0625,-4.0626,-4.0627,0,-4.0233,-4.0233,-4.027,-4.0309,-4.0339,-4.0369,-4.0396,-4.0418,-4.0418,-4.0449,-4.0493,-4.0518,-4.0568,-4.0609,-4.0645,-4.0658,-4.0642,-4.0641,-4.0654,-4.0656,-4.0653,-4.0653,-4.0501,-4.0638,-4.0636,-4.0636,-4.0635,-4.0635,-4.0321,-4.0358,-4.0383,-4.0425,-4.0445,-4.0471,-4.0506,-4.0516,-4.0553,-4.0594,-4.0589,-4.0637,-4.0661,-4.0708,-4.0724,-4.076,-4.0742,-4.0761,-4.0765,-4.0769,-4.0774,-4.0648,-4.0767,-4.0767,-4.0766,-4.0766,-4.0766,0,-4.0442,-4.0457,-4.0495,-4.0534,-4.0567,-4.0549,-4.0578,-4.0606,-4.0649,-4.0673,-4.0706,-4.0755,-4.0794,-4.0807,-4.0844,-4.0871,-4.0864,-4.0881,-4.0878,-4.0881,-4.0788,-4.0773,-4.0885,-4.0885,-4.0885,-4.0885,-4.0885,-4.0885,-4.0509,-4.057,-4.0572,-4.0642,-4.0657,-4.0704,-4.0722,-4.0745,-4.0764,-4.082,-4.0852,-4.086,-4.0879,-4.0917,-4.0952,-4.0954,-4.0968,-4.0987,-4.0987,-4.09,-4.0888,-4.0876,-4.0862,-4.0991,-4.0991,-4.1076,-4.1077,-4.1077]}]]